FENGYUN 1C DEB

Satellite information

Favourite Embed

Satellite Type and Status

DEBRISIN ORBIT

Key statistics

Satellite FENGYUN 1C DEB at a glance.

Uptime

9554

Days in orbit

Revolutions

≈ 14.1

Per day

Orbit

SSO

Sun Synchronous Orbit

Inclination

97.9

Latest

Satellite identification and parameters

Extended collection of information and parameters for FENGYUN 1C DEB.

Object identification

Identified? True

Debris? True

Object name: FENGYUN 1C DEB

International designator: 1999-025DAF

Object number (NORAD): 32419

Object ID (CCSDS): 32419

Country: PEOPLES REPUBLIC OF CHINA (PRC)

Current information (Y/N): Y

RCS size: SMALL

Orbital parameters

Period: 102.176 minutes

Inclination: 97.9243 deg

SMA: 7239.806 km

Apoapsis: 1068.221 km

Periapsis: 655.121 km

RAAN: 137.5116 deg

Eccentricy: 0.0285298

Argument of periapsis: 142.584 deg

Mean anomaly: 219.5577 deg

Mean motion: 14.09328897 rev/day

Mean motion (dot): 0.00000864 rev/day2

B* drag term: 0.0003546 1/REarth

Two-line elements (TLE)

Creation date: July 2, 2025, 5:47 p.m.

Reference frame: TEME

Reference center: EARTH

Epoch: July 2, 2025, 3:39 a.m. UTC

TLE line 0: 0 FENGYUN 1C DEB

TLE line 1: 1 32419U 99025DAF 25183.15272998 .00000864 00000-0 35460-3 0 9995

TLE line 2: 2 32419 97.9243 137.5116 0285298 142.5840 219.5577 14.09328897612665

Live tracking on map

Real-time ground track for satellite FENGYUN 1C DEB.

In-orbit conjunctions

A list of the most updated potential collisions computed for object FENGYUN 1C DEB.

Target Orbit TCA Probability of collision Miss distance Type
CZ-6A DEB LEO 2025-02-10 23:08:30 0.000507776 300.0 (m) DEBRIS
THOR ABLESTAR DEB LEO 2024-11-16 08:42:31 0.0003558011 816.0 (m) DEBRIS

Associated space launch

Chinese polar orbiting meteorological satellite

FENGYUN 1C DEB was lifted into orbit during the mission ‘Long March 4B | Feng Yun 1C’, on board a Long March 4B space rocket.

The launch took place on May 10, 1999, 1:33 a.m. from Launch Complex 7.

For more information about the launch, click the button.

Launch to space Long March 4B | Feng Yun 1C
Long March 4B | Feng Yun 1C

Agency: N/A

Status: Launch Successful

Launch date: May 10, 1999, 1:33 a.m. UTC

Rocket: Long March 4B

Launch pad: Launch Complex 7

Location: Taiyuan Satellite Launch Center, People's Republic of China

...

Latest news about this satellite

There are no fresh news available about this satellite. Check back as we update our databases every day.


Newsletter sign-up

Weekly statistics, charts and insights to help you stay on top of the space industry.